Regional Weather Roundup
Issued by NWS

Home | Current Version | Previous Version | Text Only | Print | Product List | Glossary On
Versions: 1 2 3 4 5 6 7 8 9 10 11 12 13 14 15 16 17 18 19 20 21 22 23 24 25 26 27 28 29 30 31 32 33 34 35 36 37 38 39 40 41 42 43 44 45 46 47 48 49 50
000
ASUS44 KFWD 281901
RWRTX
NORTH TEXAS HOURLY WEATHER ROUNDUP
NATIONAL WEATHER SERVICE FORT WORTH TX
200 PM CDT MON JUL 28 2014

NOTE: "FAIR" INDICATES FEW OR NO CLOUDS BELOW 12,000 FEET WITH NO
SIGNIFICANT WEATHER AND/OR OBSTRUCTIONS TO VISIBILITY.

TXZ118-119-282000-
DALLAS/FORT WORTH METROPLEX

CITY           SKY/WX    TMP DP  RH WIND       PRES   REMARKS
DFW AIRPORT    PTSUNNY   94  66  39 NE15      30.12F HX  97
DALLAS LOVE    PTSUNNY   95  68  41 NE15      30.11F HX  99
FTW MEACHAM    MOSUNNY   95  67  39 N14       30.13S HX  99
DAL-EXECUTIVE  MOSUNNY   97  70  41 NE8       30.11F HX 103
FTW-ALLIANCE   PTSUNNY   91  66  43 N15       30.14S HX  93
FTW-NAS-JRB    PTSUNNY   96  64  34 NE16      30.17S HX  98
FTW-SPINKS     MOSUNNY   95  66  38 NE16      30.13F HX  98
ARLINGTON      SUNNY     95  67  39 N14G29    30.11F HX  99
GRAND PRAIRIE  SUNNY     93  66  40 N13G20    30.13S HX  96
ADDISON        PTSUNNY   93  66  40 N10G20    30.13F HX  96
MESQUITE       SUNNY     93  70  46 NW12      30.11F HX  99
LANCASTER      CLOUDY    93  70  47 NE6       30.11F HX  98
$$

TXZ091>094-102>105-117-120-121-131>134-282000-
NORTH CENTRAL TEXAS

CITY           SKY/WX    TMP DP  RH WIND       PRES   REMARKS
SHRMAN/DENISON CLOUDY    87  62  42 N9        30.18S
GAINESVILLE    CLOUDY    83  65  53 NW16      30.22R
BOWIE          CLOUDY    78  65  63 N12       30.22F
BRIDGEPORT     PTSUNNY   89  63  42 N14G22    30.20S
DECATUR        PTSUNNY   87  62  44 N13G18    30.19F
DENTON         PTSUNNY   90  66  45 N14       30.16S HX  92
MCKINNEY       PTSUNNY   91  68  46 NE13G18   30.13F HX  95
GREENVILLE       N/A     91  70  49 NE7       30.12S HX  97
ROCKWALL       MOSUNNY   92  73  53 N12       30.11S HX 101
TERRELL        MOSUNNY   97  71  42 NE9       30.10F HX 104
WAXAHACHIE     MOSUNNY   94  67  40 N10G16    30.12F HX  98
CLEBURNE       MOSUNNY   95  70  43 N14       30.13F HX 101
GRANBURY       MOSUNNY   96  64  35 N13G18    30.14F HX  98
$$

TXZ083>090-098>101-113>116-127>130-139>142-154-155-282000-
WESTERN NORTH TEXAS

CITY           SKY/WX    TMP DP  RH WIND       PRES   REMARKS
WICHITA FALLS  RAIN      70  67  90 N10       30.26S FOG
WF-KICKAPOO    RAIN      70  68  93 N18G24    30.26F
VERNON         CLOUDY    70  67  90 NE12G17   30.27F
ABILENE        PTSUNNY   97  63  32 MISG      30.16F HX  98
ABILENE-DYESS  MOSUNNY   94  68  41 NE25G32   30.15F HX  98
BRECKENRIDGE   PTSUNNY   90  65  43 NE21G29   30.17S HX  91
GRAHAM         MOSUNNY   86  67  52 N13G24    30.19F
MINERAL WELLS  PTSUNNY   91  65  41 N17       30.15S HX  93
STEPHENVILLE   MOSUNNY   95  67  40 NE16      30.17S HX  99
COMANCHE       MOSUNNY   90  67  46 NE20G30   30.15R THUNDER HX  93
BROWNWOOD      CLOUDY    93  64  38 NE7       30.14S HX  95
COLEMAN        MOSUNNY   94  59  30 NW3       30.15F HX  94
BRADY          SUNNY     95  61  31 E7        30.15F HX  95
$$

TXZ143>147-156>162-174-175-282000-
CENTRAL TEXAS

CITY           SKY/WX    TMP DP  RH WIND       PRES   REMARKS
WACO           MOSUNNY   97  69  40 SE3       30.09F HX 103
WACO-TSTC      MOSUNNY   97  66  36 VRB5      30.08F HX 100
WACO-MCGREGOR  SUNNY     99  66  34 CALM      30.10F HX 102
HILLSBORO      MOSUNNY   94  69  44 N8        30.10F HX  98
CORSICANA      SUNNY     97  70  41 N6        30.09F HX 103
MEXIA          SUNNY     94  71  45 SW5       30.09F HX 101
CAMERON        SUNNY     95  68  41 CALM      30.10F HX  99
TEMPLE         SUNNY     93  64  38 S3        30.10F HX  95
KILLEEN        NOT AVBL
KILLEEN-SKYLRK SUNNY     95  63  34 NE6       30.10F HX  96
FORT HOOD      SUNNY    100  64  30 VRB3      30.10F HX 102
GATESVILLE     SUNNY     97  66  36 E6        30.12F HX 100
HAMILTON       PTSUNNY   94  66  39 E6        30.14F HX  97
LAMPASAS       MOSUNNY   96  67  39 NE8G21    30.11F HX 100
$$

TXZ095>097-106>112-122>126-135>138-148>153-164>167-282000-
EAST TEXAS

CITY           SKY/WX    TMP DP  RH WIND       PRES   REMARKS
PARIS          PTSUNNY   88  66  48 NE6       30.13F HX  90
SULPHUR SPRNGS PTSUNNY   90  73  57 N10       30.13F HX  97
CLARKSVILLE    MOSUNNY   90  67  45 N5        30.11F HX  93
MOUNT PLEASANT MOSUNNY   90  69  50 NE6       30.11F HX  94
GILMER         PTSUNNY   90  77  66 N7        30.11S HX 102
MINEOLA        PTSUNNY   91  77  62 N6        30.10F HX 105
TYLER          PTSUNNY   92  74  55 NW7       30.09F HX 101
LONGVIEW       MOSUNNY   93  74  53 N6        30.07F HX 103
MARSHALL       PTSUNNY   91  78  64 N3        30.10F HX 105
ATHENS         MOSUNNY   91  72  52 W3        30.08F HX  98
JACKSONVILLE   PTSUNNY   91  71  51 NW5       30.12F HX  98
HENDERSON      MOSUNNY   92  74  55 N3        30.09F HX 101
NACOGDOCHES    MOSUNNY   93  72  49 W6        30.09F HX 100
LUFKIN         MOSUNNY   95  73  48 MISG      30.09F HX 104
$$

SUPPLEMENTAL OBSERVATIONS (CENTRAL)

CITY           SKY/WX    TMP DP  RH WIND       PRES   REMARKS
$$

SUPPLEMENTAL OBSERVATIONS (WEST)

CITY           SKY/WX    TMP DP  RH WIND       PRES   REMARKS
$$

SUPPLEMENTAL OBSERVATIONS (EAST)

CITY           SKY/WX    TMP DP  RH WIND       PRES   REMARKS
$$

SUPPLEMENTAL OBSERVATIONS ARE A COLLECTION OF AUTOMATED INSTRUMENTS
THAT ARE MAINTAINED BY A VARIETY OF FEDERAL AND STATE AGENCIES.
CERTAIN ELEMENTS...SUCH AS HUMIDITY VALUES AND SUSTAINED WIND
SPEEDS...MAY BE APPROXIMATED.




USA.gov is the U.S. government's official web portal to all federal, state and local government web resources and services.